This is the latest recevied weather packets stored in our database for station/object KE6AFE. If no packets are shown the sender has not sent any weather packets the latest 10 day(s).
| Time | Temp. | Humidity | Pressure | Rain* | Wind** | Luminosity | Snow |
|---|---|---|---|---|---|---|---|
| 1777835218 | 18.33° C | 61% | 1014.6 hPa | 0 mm | - | - | - |
| 1777834608 | 18.33° C | 61% | 1014.5 hPa | 0 mm | - | - | - |
| 1777833998 | 18.33° C | 62% | 1014.5 hPa | 0 mm | - | - | - |
| 1777833388 | 17.78° C | 61% | 1014.4 hPa | 0 mm | - | - | - |
| 1777832778 | 17.78° C | 59% | 1014.2 hPa | 0 mm | - | - | - |
| 1777832168 | 17.78° C | 62% | 1014.2 hPa | 0 mm | - | - | - |
| 1777831558 | 17.22° C | 62% | 1014.1 hPa | 0 mm | - | - | - |
| 1777830948 | 16.67° C | 63% | 1014.2 hPa | 0 mm | - | - | - |
| 1777830338 | 16.67° C | 65% | 1014.3 hPa | 0 mm | - | - | - |
| 1777829728 | 16.67° C | 65% | 1014.2 hPa | 0 mm | - | - | - |
| 1777829118 | 16.67° C | 65% | 1014.1 hPa | 0 mm | - | - | - |
| 1777828508 | 16.11° C | 64% | 1014 hPa | 0 mm | - | - | - |
| 1777827898 | 16.11° C | 63% | 1014 hPa | 0 mm | - | - | - |
| 1777827288 | 16.11° C | 65% | 1013.8 hPa | 0 mm | - | - | - |
| 1777826678 | 15.56° C | 68% | 1013.8 hPa | 0 mm | - | - | - |
| 1777826068 | 15° C | 68% | 1013.8 hPa | 0 mm | - | - | - |
| 1777825458 | 15° C | 71% | 1013.9 hPa | 0.25 mm | - | - | - |
| 1777824848 | 14.44° C | 74% | 1013.8 hPa | 0.25 mm | - | - | - |
| 1777824238 | 13.89° C | 75% | 1013.7 hPa | 0.25 mm | - | - | - |
| 1777823628 | 13.89° C | 76% | 1013.7 hPa | 0.25 mm | - | - | - |
| 1777823018 | 13.33° C | 77% | 1013.6 hPa | 0.25 mm | - | - | - |
| 1777822408 | 13.33° C | 77% | 1013.6 hPa | 0 mm | - | - | - |
| 1777821798 | 13.33° C | 78% | 1013.6 hPa | 0 mm | - | - | - |
| 1777821188 | 13.33° C | 78% | 1013.5 hPa | 0 mm | - | - | - |
| 1777820578 | 13.33° C | 78% | 1013.5 hPa | 0 mm | - | - | - |
* Rain latest hour (hover to see other rain measurements)
** Current wind speed in m/s (hover to see current wind gust speed)